DW6885 Weather Reports


Display with metric or nautical units.
time (UTC)temp
F
wind
direction
speed
MPH
gust
MPH
rain 1hr
in
rain 24hr
in
rain mn
in
humidity
%
barometer
mb
20141218102509 32 202 1.0 3.0 0.00 0.52 0.00 97 1006.4
20141218102406 32 202 1.0 4.0 0.00 0.14 0.00 97 1006.4
20141218100904 32 296 0.0 5.0 0.00 0.14 0.00 96 1006.3
20141218100510 32 281 0.0 3.0 0.00 0.52 0.00 96 1006.2
20141218095511 32 247 0.0 2.0 0.00 0.52 0.00 96 1006.3
20141218095405 32 234 0.0 4.0 0.00 0.24 0.00 96 1006.3
20141218094510 32 222 0.0 3.0 0.00 0.52 0.00 95 1006.2
20141218093905 32 283 0.0 4.0 0.00 0.24 0.00 95 1006.1
20141218093509 32 342 1.0 3.0 0.00 0.52 0.00 95 1006.2
20141218092510 32 277 1.0 3.0 0.00 0.52 0.00 95 1006.1
20141218092405 32 288 1.0 4.0 0.00 0.24 0.00 95 1006.1
20141218091516 32 5 0.0 2.0 0.00 0.52 0.00 95 1006.0
20141218090905 32 76 0.0 3.0 0.00 0.24 0.00 94 1006.0
20141218090509 33 107 0.0 3.0 0.00 0.52 0.00 94 1006.0
20141218085505 32 341 0.0 2.0 0.00 0.34 0.00 94 1006.0
20141218083905 32 36 0.0 3.0 0.00 0.34 0.00 94 1006.1
20141218083510 32 108 0.0 3.0 0.00 0.52 0.00 94 1006.2
20141218082510 32 347 0.0 2.0 0.00 0.52 0.00 95 1006.2
20141218082505 32 271 0.0 5.0 0.00 0.34 0.00 94 1006.2
20141218081510 32 59 0.0 3.0 0.00 0.52 0.00 95 1006.2
20141218081106 32 59 0.0 3.0 0.00 0.34 0.00 96 1006.2
20141218080511 32 299 0.0 3.0 0.00 0.52 0.00 96 1006.3
20141218075509 32 204 1.0 3.0 0.00 0.52 0.00 97 1006.3
20141218075405 31 200 1.0 4.0 0.00 0.38 0.00 97 1006.3
20141218074511 32 197 0.0 3.0 0.00 0.52 0.00 97 1006.3
20141218074105 31 197 0.0 4.0 0.00 0.38 0.00 97 1006.4
20141218073511 32 238 0.0 3.0 0.00 0.52 0.00 98 1006.4
20141218072105 31 247 0.0 2.0 0.00 0.38 0.00 98 1006.5
20141218071510 31 236 0.0 2.0 0.00 0.52 0.00 98 1006.4
20141218071105 31 236 0.0 2.0 0.00 0.38 0.00 98 1006.4
20141218070511 31 236 0.0 0.0 0.00 0.52 0.00 98 1006.3
20141218065510 31 236 0.0 0.0 0.00 0.52 0.00 98 1006.3
20141218065105 30 236 0.0 1.0 0.00 0.39 0.00 97 1006.3
20141218063804 30 236 0.0 0.0 0.00 0.39 0.00 97 1006.4
20141218062604 31 236 0.0 2.0 0.00 0.39 0.00 97 1006.2
20141218060605 30 236 0.0 0.0 0.00 0.39 0.00 97 1006.3
20141218055004 31 236 0.0 0.0 0.00 0.41 0.00 97 1006.2
20141218053512 32 236 0.0 2.0 0.00 0.52 0.00 96 1006.4
20141218053506 31 236 0.0 2.0 0.00 0.41 0.00 96 1006.4
20141218052510 32 236 0.0 2.0 0.00 0.52 0.00 96 1006.4
20141218052012 32 236 0.0 2.0 0.00 0.41 0.00 96 1006.4
20141218051510 32 353 0.0 2.0 0.00 0.52 0.00 96 1006.4
20141218050505 32 355 0.0 2.0 0.00 0.41 0.00 96 1006.4
20141218045509 33 275 1.0 3.0 0.00 0.52 0.41 95 1006.4
20141218044904 32 265 0.0 3.0 0.00 0.46 0.41 95 1006.4
20141218044509 33 266 1.0 3.0 0.00 0.52 0.41 95 1006.4
20141218043509 33 232 1.0 3.0 0.00 0.52 0.41 95 1006.6
20141218043405 33 232 0.0 2.0 0.00 0.46 0.41 95 1006.5
20141218042508 33 186 1.0 5.0 0.00 0.52 0.41 95 1006.6
20141218041905 33 249 1.0 5.0 0.00 0.46 0.41 95 1006.6
20141218040405 33 242 1.0 5.0 0.00 0.46 0.41 94 1006.7
20141218035509 34 44 0.0 3.0 0.00 0.52 0.41 94 1006.8
20141218034905 34 14 0.0 4.0 0.00 0.52 0.41 94 1006.9
20141218034509 34 14 0.0 3.0 0.00 0.52 0.41 95 1007.0
20141218033508 34 184 0.0 3.0 0.00 0.52 0.41 95 1007.0
20141218033404 34 184 1.0 4.0 0.00 0.52 0.41 95 1007.0
20141218032509 34 179 1.0 8.0 0.00 0.52 0.41 95 1007.1
20141218032405 34 126 0.0 3.0 0.00 0.52 0.41 95 1007.1
20141218030509 34 244 1.0 8.0 0.00 0.52 0.41 96 1007.2
20141218030404 34 265 0.0 3.0 0.00 0.52 0.41 96 1007.2
20141218025509 34 207 1.0 7.0 0.00 0.52 0.41 95 1007.2
20141218024905 34 194 1.0 3.0 0.00 0.52 0.41 95 1007.1
20141218023405 34 235 1.0 8.0 0.00 0.52 0.41 96 1006.9
20141218022508 35 227 0.0 3.0 0.00 0.52 0.41 96 1007.0
20141218021905 35 171 0.0 3.0 0.00 0.52 0.41 96 1007.0
20141218021509 35 135 1.0 3.0 0.00 0.52 0.41 96 1006.9
20141218020404 35 221 0.0 3.0 0.00 0.52 0.41 95 1006.9
20141218015509 35 186 1.0 3.0 0.00 0.52 0.41 96 1006.7
20141218014904 35 277 0.0 4.0 0.00 0.52 0.41 96 1006.8
20141218014508 36 250 1.0 3.0 0.00 0.52 0.41 96 1006.8
20141218013508 36 264 1.0 3.0 0.00 0.52 0.41 95 1006.9
20141218013405 35 266 1.0 4.0 0.00 0.52 0.41 95 1006.8
20141218012011 36 213 1.0 4.0 0.00 0.52 0.41 96 1006.8
20141218011509 36 203 1.0 5.0 0.00 0.52 0.41 96 1006.9
20141218010133 36 298 0.0 7.0 0.00 0.52 0.41 96 1007.0
20141218005509 36 283 1.0 5.0 0.00 0.52 0.41 97 1007.0
20141218004905 36 286 1.0 5.0 0.00 0.52 0.41 97 1007.0
20141218004508 37 79 1.0 9.0 0.00 0.52 0.41 97 1007.0
20141218003509 37 223 2.0 9.0 0.00 0.52 0.41 97 1007.0
20141218003404 36 267 1.0 5.0 0.00 0.52 0.41 97 1007.0
20141218002508 37 255 2.0 9.0 0.00 0.52 0.41 98 1007.0
20141218001905 37 246 2.0 9.0 0.00 0.52 0.41 98 1007.0
20141218001508 37 266 2.0 9.0 0.00 0.52 0.41 98 1007.0
20141218000509 37 261 1.0 8.0 0.00 0.52 0.41 99 1007.1
20141218000405 37 250 0.0 5.0 0.00 0.52 0.41 99 1007.1
20141217235508 37 243 1.0 3.0 0.00 0.52 0.41 99 1007.2
20141217235013 37 289 1.0 4.0 0.00 0.52 0.41 99 1007.2
20141217233012 36 216 1.0 3.0 0.00 0.52 0.41 99 1007.4
20141217232509 36 146 0.0 3.0 0.00 0.52 0.41 98 1007.4
20141217231509 35 139 0.0 0.0 0.00 0.52 0.41 98 1007.3
20141217231506 35 139 0.0 0.0 0.00 0.52 0.41 98 1007.3
20141217230508 35 139 0.0 0.0 0.00 0.52 0.41 98 1007.1
20141217230404 35 139 0.0 0.0 0.00 0.52 0.41 98 1007.1
20141217224505 35 139 0.0 0.0 0.00 0.52 0.41 97 1006.9
20141217223009 35 139 0.0 0.0 0.00 0.52 0.41 97 1006.9
20141217222508 36 139 0.0 0.0 0.00 0.52 0.41 96 1006.8
20141217221509 37 139 0.0 1.0 0.00 0.52 0.41 96 1006.7
20141217221404 36 139 0.0 0.0 0.00 0.52 0.41 96 1006.8
20141217220508 38 139 0.0 1.0 0.00 0.52 0.41 96 1006.7
20141217215905 38 139 0.0 2.0 0.00 0.52 0.41 96 1006.6
20141217214406 38 229 0.0 2.0 0.00 0.52 0.41 96 1006.6
20141217212904 39 187 0.0 3.0 0.00 0.52 0.41 97 1006.7
20141217212509 39 289 0.0 3.0 0.00 0.52 0.41 96 1006.7
20141217211404 39 196 1.0 7.0 0.00 0.52 0.41 96 1006.6
20141217210509 39 44 0.0 3.0 0.00 0.52 0.41 96 1006.5
20141217205904 39 167 0.0 4.0 0.00 0.52 0.41 96 1006.5
20141217205508 40 280 1.0 3.0 0.00 0.52 0.41 96 1006.5
20141217204405 39 348 0.0 5.0 0.00 0.52 0.41 96 1006.4
20141217202905 39 244 1.0 3.0 0.00 0.52 0.41 96 1006.5
20141217202508 40 239 0.0 5.0 0.00 0.52 0.41 96 1006.4
20141217201405 40 294 0.0 4.0 0.00 0.52 0.41 95 1006.4
20141217200508 40 289 0.0 6.0 0.01 0.52 0.41 95 1006.3
20141217195904 40 250 0.0 5.0 0.00 0.52 0.41 95 1006.2
20141217195509 40 293 0.0 6.0 0.01 0.52 0.41 95 1006.3
20141217194404 40 355 0.0 3.0 0.00 0.52 0.41 95 1006.3
20141217192904 40 298 2.0 6.0 0.00 0.52 0.41 95 1006.3
20141217192508 41 272 1.0 5.0 0.01 0.52 0.41 95 1006.3
20141217191405 41 212 1.0 8.0 0.00 0.52 0.41 95 1006.2
20141217190508 41 355 1.0 6.0 0.01 0.52 0.41 95 1006.3
20141217185904 41 24 1.0 6.0 0.00 0.52 0.41 95 1006.3
20141217185509 41 11 1.0 5.0 0.01 0.52 0.41 96 1006.2
20141217184508 41 1 1.0 9.0 0.01 0.52 0.41 96 1006.1
20141217184404 41 19 1.0 4.0 0.01 0.52 0.41 96 1006.1
20141217183508 41 301 3.0 9.0 0.01 0.52 0.41 96 1006.0
20141217182905 41 13 3.0 11.0 0.01 0.52 0.41 96 1006.0
20141217181509 41 241 1.0 8.0 0.01 0.52 0.41 96 1006.1
20141217181404 41 223 0.0 8.0 0.01 0.52 0.41 96 1006.1
20141217175904 41 5 1.0 6.0 0.01 0.52 0.41 97 1006.2
20141217175510 42 221 2.0 5.0 0.01 0.52 0.41 98 1006.1
20141217174509 42 209 1.0 3.0 0.00 0.51 0.40 99 1006.1
20141217174417 42 263 0.0 4.0 0.00 0.51 0.40 99 1006.1
20141217173508 42 22 1.0 2.0 0.00 0.51 0.40 99 1006.1
20141217172508 42 326 0.0 3.0 0.00 0.51 0.40 99 1006.3
20141217172505 41 326 0.0 3.0 0.00 0.51 0.40 99 1006.3
20141217171508 41 244 1.0 3.0 0.00 0.51 0.40 100 1006.2
20141217171011 41 237 0.0 4.0 0.00 0.51 0.40 100 1006.3
20141217170508 41 241 1.0 3.0 0.00 0.51 0.40 100 1006.4
20141217165509 41 277 1.0 3.0 0.00 0.51 0.40 100 1006.6
20141217165505 40 277 1.0 3.0 0.00 0.51 0.40 100 1006.5
20141217164508 41 277 0.0 3.0 0.01 0.51 0.40 100 1006.7
20141217164011 40 277 0.0 3.0 0.00 0.51 0.40 100 1006.8
20141217162405 40 292 0.0 4.0 0.00 0.51 0.40 100 1006.9
20141217161508 40 18 1.0 3.0 0.05 0.51 0.40 100 1007.1
20141217161405 40 39 1.0 4.0 0.00 0.51 0.40 100 1007.1
20141217155405 40 319 0.0 3.0 0.00 0.51 0.40 100 1007.6
20141217154508 40 334 2.0 3.0 0.06 0.51 0.40 100 1007.6
20141217153904 39 197 0.0 3.0 0.00 0.51 0.40 100 1007.7
20141217153508 39 357 1.0 3.0 0.06 0.51 0.40 100 1007.9
20141217152508 38 83 0.0 3.0 0.06 0.51 0.40 100 1008.1
20141217152405 38 83 0.0 2.0 0.00 0.51 0.40 100 1008.1
20141217150905 37 294 0.0 3.0 0.02 0.51 0.40 100 1008.2
20141217150508 37 294 1.0 3.0 0.06 0.51 0.40 100 1008.2
20141217145404 36 127 0.0 1.0 0.05 0.51 0.40 100 1008.4
20141217143905 36 127 0.0 1.0 0.06 0.51 0.40 100 1008.4
20141217142508 36 127 0.0 1.0 0.07 0.51 0.40 100 1008.6
20141217142404 35 127 0.0 1.0 0.06 0.51 0.40 100 1008.6
20141217141508 35 127 0.0 1.0 0.06 0.50 0.39 100 1008.7
20141217140904 35 127 0.0 1.0 0.04 0.49 0.38 100 1008.6
20141217135404 35 127 0.0 1.0 0.01 0.46 0.35 100 1008.7
20141217134508 35 127 1.0 2.0 0.02 0.46 0.35 99 1008.7
20141217133905 34 127 0.0 2.0 0.00 0.45 0.34 99 1008.7
20141217132405 34 128 0.0 1.0 0.00 0.45 0.34 99 1008.5
20141217131508 34 128 0.0 2.0 0.03 0.45 0.34 99 1008.5
20141217130904 33 128 0.0 2.0 0.01 0.45 0.34 99 1008.5
20141217125509 34 338 0.0 2.0 0.04 0.46 0.34 99 1008.3
20141217125404 33 338 0.0 0.0 0.01 0.45 0.34 99 1008.4
20141217123905 33 338 0.0 2.0 0.01 0.45 0.34 99 1008.7
20141217122509 34 171 0.0 2.0 0.08 0.46 0.34 99 1008.6
20141217122404 33 171 0.0 2.0 0.01 0.45 0.34 99 1008.6
20141217121508 34 111 0.0 1.0 0.09 0.45 0.33 99 1008.5
20141217120904 33 233 0.0 2.0 0.01 0.44 0.33 99 1008.7
20141217120508 33 233 0.0 0.0 0.10 0.45 0.33 99 1008.7
20141217115508 33 233 0.0 0.0 0.12 0.45 0.33 99 1008.7
20141217115404 33 233 0.0 0.0 0.01 0.44 0.33 99 1008.7
20141217113510 33 233 0.0 0.0 0.02 0.44 0.33 99 1008.9
20141217113508 33 233 0.0 0.0 0.15 0.45 0.33 99 1008.9
20141217112508 33 233 0.0 0.0 0.17 0.45 0.33 99 1009.0
20141217112012 33 233 0.0 2.0 0.04 0.44 0.33 99 1009.0
20141217111508 33 233 0.0 2.0 0.20 0.45 0.33 99 1009.0
20141217110505 33 233 0.0 1.0 0.05 0.43 0.32 99 1009.0
20141217105010 33 233 0.0 1.0 0.07 0.43 0.32 99 1009.1
20141217104509 33 233 0.0 1.0 0.25 0.43 0.31 99 1009.2
20141217103509 33 304 0.0 2.0 0.27 0.43 0.31 99 1009.2
20141217103404 33 304 0.0 2.0 0.08 0.42 0.31 99 1009.2